Vineland (AU8), Ontario

10:19 AM EDT on October 23, 2017 (GMT -0400)
Vineland (AU8)

Weather History for CXVN - October, 2011

Change the Weather History Date:

Tuesday, October 11, 2011

  Actual Average (CYSN) Record (CYSN)
Temperature  
Mean Temperature 58 °F -  
Max Temperature 65 °F 59 °F 71 °F (2011)
Min Temperature 50 °F 45 °F 35 °F (2004)
Degree Days  
Heating Degree Days 8    
Growing Degree Days 8 (Base 50)    
Moisture  
Dew Point 57 °F    
Average Humidity 92    
Maximum Humidity 97    
Minimum Humidity 84    
Precipitation  
Precipitation 0.00 in - - ()
Sea Level Pressure  
Sea Level Pressure 30.11 in    
Wind  
Wind Speed 3 mph ()    
Max Wind Speed 7 mph    
Max Gust Speed -    
Averages and records for this station are not official NWS values.
T = Trace of Precipitation, MM = Missing Value Source: Averaged Metar Reports

Daily Weather History Graph

Daily Weather History Graph

Search for Another Location

Airport or City:

Trip Planner

Search our weather history database for the weather conditions in past years. The results will help you decide how hot, cold, wet, or windy it might be!

Date:

Astronomy

Oct. 11, 2011 Rise Set
Actual Time 7:26 AM EDT 6:41 PM EDT
Civil Twilight 6:57 AM EDT 7:10 PM EDT
Nautical Twilight 6:24 AM EDT 7:43 PM EDT
Astronomical Twilight 5:51 AM EDT 8:16 PM EDT
Moon 6:11 PM EDT (10/11) 7:03 AM EDT (10/11)
Length of Visible Light 12h 12m
Length of Day
11h 15m
Full, 100% of the Moon is Illuminated
Oct 11
Full
Oct 11
Full
Oct 19
Last Quarter
Oct 26
New
Nov 2
First Quarter

Hourly Weather History & Observations

Time (EDT) Temp. Dew Point Humidity Pressure Visibility Wind Dir Wind Speed Gust Speed Precip Events Conditions
12:00 AM 57.0 °F 53.4 °F 88% 30.17 in - SW 3.5 mph - N/A   Unknown
2:00 AM 55 °F 52 °F 87% 30.15 in - South 3.5 mph - -  
2:00 AM 54.7 °F 52.2 °F 91% 30.15 in - South 3.5 mph - N/A   Unknown
3:00 AM 54.3 °F 51.3 °F 89% 30.14 in - SSW 4.6 mph - N/A   Unknown
4:00 AM 53.2 °F 50.5 °F 91% 30.14 in - South 2.3 mph - N/A   Unknown
5:00 AM 51.1 °F 49.5 °F 94% 30.14 in - SSW 2.3 mph - N/A   Unknown
6:00 AM 51.8 °F 50.0 °F 94% 30.15 in - WSW 2.3 mph - N/A   Unknown
7:00 AM 52.5 °F 50.9 °F 94% 30.15 in - SW 2.3 mph - N/A   Unknown
8:00 AM 54 °F 53 °F 95% 30.16 in - SSW 3.5 mph - -  
8:00 AM 54.1 °F 53.1 °F 96% 30.16 in - SSW 3.5 mph - N/A   Unknown
9:00 AM 59.2 °F 56.3 °F 90% 30.15 in - South 2.3 mph - N/A   Unknown
10:00 AM 62.6 °F 58.8 °F 87% 30.15 in - NNE 1.2 mph - N/A   Unknown
11:00 AM 64.0 °F 59.2 °F 84% 30.14 in - NE 2.3 mph - N/A   Unknown
12:00 PM 64.4 °F 60.4 °F 87% 30.13 in - NE 4.6 mph - N/A   Unknown
1:00 PM 64.9 °F 60.4 °F 85% 30.12 in - NE 4.6 mph - N/A   Unknown
2:00 PM 63 °F 60 °F 86% 30.10 in - ENE 6.9 mph - -  
3:00 PM 61.5 °F 60.4 °F 96% 30.09 in - ENE 5.8 mph - N/A   Unknown
4:00 PM 62.1 °F 60.3 °F 94% 30.09 in - NNE 4.6 mph - N/A   Unknown
5:00 PM 63.0 °F 60.8 °F 93% 30.08 in - NNE 4.6 mph - N/A   Unknown
6:00 PM 62.4 °F 60.4 °F 93% 30.06 in - NNW 3.5 mph - N/A   Unknown
7:00 PM 62.1 °F 60.3 °F 94% 30.06 in - NNE 3.5 mph - N/A   Unknown
8:00 PM 61 °F 60 °F 95% 30.06 in - North 3.5 mph - -  
8:00 PM 61.3 °F 59.9 °F 95% 30.06 in - North 3.5 mph - N/A   Unknown
9:00 PM 60.6 °F 59.4 °F 96% 30.04 in - North 2.3 mph - N/A   Unknown
10:00 PM 59.7 °F 58.8 °F 97% 30.04 in - Calm Calm - N/A   Unknown
11:00 PM 58.6 °F 57.9 °F 97% 30.04 in - SW 2.3 mph - N/A   Unknown